Time,TemperatureF,DewpointF,PressureIn,WindDirection,WindDirectionDegrees,WindSpeedMPH,WindSpeedGustMPH,Humidity,HourlyPrecipIn,Conditions,Clouds,dailyrainin,SoftwareType,DateUTC
2013-10-16 00:01:00,50.9,32.9,29.53,North,-999,-999.0,0.0,50,0.00,,,0.00,LWC V2.10 B1813,2013-10-16 06:01:00,
2013-10-16 00:06:00,50.7,32.7,29.53,North,-999,-999.0,0.0,50,0.00,,,0.00,LWC V2.10 B1813,2013-10-16 06:06:00,
2013-10-16 00:11:00,50.6,32.7,29.53,North,-999,-999.0,0.0,50,0.00,,,0.00,LWC V2.10 B1813,2013-10-16 06:11:00,
2013-10-16 00:16:00,50.6,32.7,29.53,North,-999,-999.0,0.0,50,0.00,,,0.00,LWC V2.10 B1813,2013-10-16 06:16:00,
2013-10-16 00:21:00,50.4,32.5,29.53,North,-999,-999.0,0.0,50,0.00,,,0.00,LWC V2.10 B1813,2013-10-16 06:21:00,
2013-10-16 00:26:00,50.5,32.6,29.53,North,-999,-999.0,0.0,50,0.00,,,0.00,LWC V2.10 B1813,2013-10-16 06:26:00,
2013-10-16 00:31:00,50.5,32.6,29.53,North,-999,-999.0,0.0,50,0.00,,,0.00,LWC V2.10 B1813,2013-10-16 06:31:00,
2013-10-16 00:36:00,50.5,33.1,29.53,North,-999,-999.0,0.0,51,0.00,,,0.00,LWC V2.10 B1813,2013-10-16 06:36:00,
2013-10-16 00:41:00,50.4,33.0,29.53,North,-999,-999.0,0.0,51,0.00,,,0.00,LWC V2.10 B1813,2013-10-16 06:41:00,
2013-10-16 00:46:00,50.5,33.1,29.53,North,-999,-999.0,0.0,51,0.00,,,0.00,LWC V2.10 B1813,2013-10-16 06:46:00,
2013-10-16 00:51:00,50.5,33.1,29.53,North,-999,-999.0,0.0,51,0.00,,,0.00,LWC V2.10 B1813,2013-10-16 06:51:00,
2013-10-16 00:56:00,50.6,33.1,29.53,North,-999,-999.0,0.0,51,0.00,,,0.00,LWC V2.10 B1813,2013-10-16 06:56:00,
2013-10-16 01:01:00,50.7,33.2,29.53,North,-999,-999.0,0.0,51,0.00,,,0.00,LWC V2.10 B1813,2013-10-16 07:01:00,
2013-10-16 01:06:00,50.6,33.1,29.53,North,-999,-999.0,0.0,51,0.00,,,0.00,LWC V2.10 B1813,2013-10-16 07:06:00,
2013-10-16 01:11:00,50.4,33.4,29.53,North,-999,-999.0,0.0,52,0.00,,,0.00,LWC V2.10 B1813,2013-10-16 07:11:00,
2013-10-16 01:16:00,50.4,33.4,29.53,North,-999,-999.0,0.0,52,0.00,,,0.00,LWC V2.10 B1813,2013-10-16 07:16:00,
2013-10-16 01:21:00,50.2,33.3,29.53,North,-999,-999.0,0.0,52,0.00,,,0.00,LWC V2.10 B1813,2013-10-16 07:21:00,
2013-10-16 01:26:00,50.3,33.4,29.53,North,-999,-999.0,0.0,52,0.00,,,0.00,LWC V2.10 B1813,2013-10-16 07:26:00,
2013-10-16 01:31:00,50.2,33.3,29.53,North,-999,-999.0,0.0,52,0.00,,,0.00,LWC V2.10 B1813,2013-10-16 07:31:00,
2013-10-16 01:36:00,50.1,33.6,29.53,North,-999,-999.0,0.0,53,0.00,,,0.00,LWC V2.10 B1813,2013-10-16 07:36:00,
2013-10-16 01:41:00,50.1,33.6,29.53,North,-999,-999.0,0.0,53,0.00,,,0.00,LWC V2.10 B1813,2013-10-16 07:41:00,
2013-10-16 01:46:00,49.9,33.5,29.53,North,-999,-999.0,0.0,53,0.00,,,0.00,LWC V2.10 B1813,2013-10-16 07:46:00,
2013-10-16 01:51:00,49.9,33.9,29.53,North,-999,-999.0,0.0,54,0.00,,,0.00,LWC V2.10 B1813,2013-10-16 07:51:00,
2013-10-16 01:56:00,49.8,33.8,29.53,North,-999,-999.0,0.0,54,0.00,,,0.00,LWC V2.10 B1813,2013-10-16 07:56:00,
2013-10-16 02:01:00,49.6,33.6,29.53,North,-999,-999.0,0.0,54,0.00,,,0.00,LWC V2.10 B1813,2013-10-16 08:01:00,
2013-10-16 02:06:00,49.5,33.6,29.53,North,-999,-999.0,0.0,54,0.00,,,0.00,LWC V2.10 B1813,2013-10-16 08:06:00,
2013-10-16 02:11:00,49.5,34.0,29.53,North,-999,-999.0,0.0,55,0.00,,,0.00,LWC V2.10 B1813,2013-10-16 08:11:00,
2013-10-16 02:16:00,49.4,33.9,29.53,North,-999,-999.0,0.0,55,0.00,,,0.00,LWC V2.10 B1813,2013-10-16 08:16:00,
2013-10-16 02:21:00,49.5,34.0,29.53,North,-999,-999.0,0.0,55,0.00,,,0.00,LWC V2.10 B1813,2013-10-16 08:21:00,
2013-10-16 02:26:00,49.4,33.9,29.53,North,-999,-999.0,0.0,55,0.00,,,0.00,LWC V2.10 B1813,2013-10-16 08:26:00,
2013-10-16 02:31:00,49.3,33.8,29.53,North,-999,-999.0,0.0,55,0.00,,,0.00,LWC V2.10 B1813,2013-10-16 08:31:00,
2013-10-16 02:36:00,49.1,33.6,29.53,North,-999,-999.0,0.0,55,0.00,,,0.00,LWC V2.10 B1813,2013-10-16 08:36:00,
2013-10-16 02:41:00,49.2,33.7,29.53,North,-999,-999.0,0.0,55,0.00,,,0.00,LWC V2.10 B1813,2013-10-16 08:41:00,
2013-10-16 02:46:00,49.1,33.6,29.53,North,-999,-999.0,0.0,55,0.00,,,0.00,LWC V2.10 B1813,2013-10-16 08:46:00,
2013-10-16 02:51:00,49.2,33.7,29.53,North,-999,-999.0,0.0,55,0.00,,,0.00,LWC V2.10 B1813,2013-10-16 08:51:00,
2013-10-16 02:56:00,49.2,33.7,29.53,North,-999,-999.0,0.0,55,0.00,,,0.00,LWC V2.10 B1813,2013-10-16 08:56:00,
2013-10-16 03:01:00,49.0,33.5,29.53,North,-999,-999.0,0.0,55,0.00,,,0.00,LWC V2.10 B1813,2013-10-16 09:01:00,
2013-10-16 03:06:00,49.0,33.5,29.53,North,-999,-999.0,0.0,55,0.00,,,0.00,LWC V2.10 B1813,2013-10-16 09:06:00,
2013-10-16 03:11:00,48.8,33.4,29.53,North,-999,-999.0,0.0,55,0.00,,,0.00,LWC V2.10 B1813,2013-10-16 09:11:00,
2013-10-16 03:16:00,48.9,33.5,29.53,North,-999,-999.0,0.0,55,0.00,,,0.00,LWC V2.10 B1813,2013-10-16 09:16:00,
2013-10-16 03:21:00,48.8,33.4,29.53,North,-999,-999.0,0.0,55,0.00,,,0.00,LWC V2.10 B1813,2013-10-16 09:21:00,
2013-10-16 03:26:00,48.7,33.3,29.53,North,-999,-999.0,0.0,55,0.00,,,0.00,LWC V2.10 B1813,2013-10-16 09:26:00,
2013-10-16 03:31:00,48.6,33.2,29.53,North,-999,-999.0,0.0,55,0.00,,,0.00,LWC V2.10 B1813,2013-10-16 09:31:00,
2013-10-16 03:36:00,48.6,33.2,29.53,North,-999,-999.0,0.0,55,0.00,,,0.00,LWC V2.10 B1813,2013-10-16 09:36:00,
2013-10-16 03:41:00,48.6,33.2,29.53,North,-999,-999.0,0.0,55,0.00,,,0.00,LWC V2.10 B1813,2013-10-16 09:41:00,
2013-10-16 03:46:00,48.6,33.6,29.53,North,-999,-999.0,0.0,56,0.00,,,0.00,LWC V2.10 B1813,2013-10-16 09:46:00,
2013-10-16 03:51:00,48.6,33.6,29.53,North,-999,-999.0,0.0,56,0.00,,,0.00,LWC V2.10 B1813,2013-10-16 09:51:00,
2013-10-16 03:56:00,48.6,33.6,29.53,North,-999,-999.0,0.0,56,0.00,,,0.00,LWC V2.10 B1813,2013-10-16 09:56:00,
2013-10-16 04:01:00,48.7,33.3,29.53,North,-999,-999.0,0.0,55,0.00,,,0.00,LWC V2.10 B1813,2013-10-16 10:01:00,
2013-10-16 04:06:00,48.6,33.6,29.53,North,-999,-999.0,0.0,56,0.00,,,0.00,LWC V2.10 B1813,2013-10-16 10:06:00,
2013-10-16 04:11:00,48.7,33.3,29.53,North,-999,-999.0,0.0,55,0.00,,,0.00,LWC V2.10 B1813,2013-10-16 10:11:00,
2013-10-16 04:16:00,48.7,33.3,29.53,North,-999,-999.0,0.0,55,0.00,,,0.00,LWC V2.10 B1813,2013-10-16 10:16:00,
2013-10-16 04:21:00,48.7,33.7,29.53,North,-999,-999.0,0.0,56,0.00,,,0.00,LWC V2.10 B1813,2013-10-16 10:21:00,
2013-10-16 04:26:00,48.7,33.3,29.53,North,-999,-999.0,0.0,55,0.00,,,0.00,LWC V2.10 B1813,2013-10-16 10:26:00,
2013-10-16 04:31:00,48.6,33.2,29.53,North,-999,-999.0,0.0,55,0.00,,,0.00,LWC V2.10 B1813,2013-10-16 10:31:00,
2013-10-16 04:36:00,48.5,33.1,29.53,North,-999,-999.0,0.0,55,0.00,,,0.00,LWC V2.10 B1813,2013-10-16 10:36:00,
2013-10-16 04:41:00,48.5,33.1,29.53,North,-999,-999.0,0.0,55,0.00,,,0.00,LWC V2.10 B1813,2013-10-16 10:41:00,
2013-10-16 04:46:00,48.5,33.1,29.53,North,-999,-999.0,0.0,55,0.00,,,0.00,LWC V2.10 B1813,2013-10-16 10:46:00,
2013-10-16 04:51:00,48.4,33.0,29.53,North,-999,-999.0,0.0,55,0.00,,,0.00,LWC V2.10 B1813,2013-10-16 10:51:00,
2013-10-16 04:56:00,48.5,33.1,29.53,North,-999,-999.0,0.0,55,0.00,,,0.00,LWC V2.10 B1813,2013-10-16 10:56:00,
2013-10-16 05:01:00,48.4,33.0,29.53,North,-999,-999.0,0.0,55,0.00,,,0.00,LWC V2.10 B1813,2013-10-16 11:01:00,
2013-10-16 05:06:00,48.6,33.2,29.53,North,-999,-999.0,0.0,55,0.00,,,0.00,LWC V2.10 B1813,2013-10-16 11:06:00,
2013-10-16 05:11:00,48.7,33.3,29.53,North,-999,-999.0,0.0,55,0.00,,,0.00,LWC V2.10 B1813,2013-10-16 11:11:00,
2013-10-16 05:16:00,48.8,33.4,29.53,North,-999,-999.0,0.0,55,0.00,,,0.00,LWC V2.10 B1813,2013-10-16 11:16:00,
2013-10-16 05:21:00,48.8,33.4,29.53,North,-999,-999.0,0.0,55,0.00,,,0.00,LWC V2.10 B1813,2013-10-16 11:21:00,
2013-10-16 05:26:00,49.0,33.5,29.53,North,-999,-999.0,0.0,55,0.00,,,0.00,LWC V2.10 B1813,2013-10-16 11:26:00,
2013-10-16 05:31:00,49.0,33.5,29.53,North,-999,-999.0,0.0,55,0.00,,,0.00,LWC V2.10 B1813,2013-10-16 11:31:00,
2013-10-16 05:36:00,49.0,33.5,29.53,North,-999,-999.0,0.0,55,0.00,,,0.00,LWC V2.10 B1813,2013-10-16 11:36:00,
2013-10-16 05:41:00,49.1,33.6,29.53,North,-999,-999.0,0.0,55,0.00,,,0.00,LWC V2.10 B1813,2013-10-16 11:41:00,
2013-10-16 05:46:00,49.0,33.5,29.53,North,-999,-999.0,0.0,55,0.00,,,0.00,LWC V2.10 B1813,2013-10-16 11:46:00,
2013-10-16 05:51:00,48.9,33.5,29.53,North,-999,-999.0,0.0,55,0.00,,,0.00,LWC V2.10 B1813,2013-10-16 11:51:00,
2013-10-16 05:56:00,48.8,33.4,29.53,North,-999,-999.0,0.0,55,0.00,,,0.00,LWC V2.10 B1813,2013-10-16 11:56:00,
2013-10-16 06:01:00,48.6,33.6,29.53,North,-999,-999.0,0.0,56,0.00,,,0.00,LWC V2.10 B1813,2013-10-16 12:01:00,
2013-10-16 06:06:00,48.2,33.2,29.53,North,-999,-999.0,0.0,56,0.00,,,0.00,LWC V2.10 B1813,2013-10-16 12:06:00,
2013-10-16 06:11:00,47.7,33.2,29.53,North,-999,-999.0,0.0,57,0.00,,,0.00,LWC V2.10 B1813,2013-10-16 12:11:00,
2013-10-16 06:16:00,47.5,33.5,29.53,North,-999,-999.0,0.0,58,0.00,,,0.00,LWC V2.10 B1813,2013-10-16 12:16:00,
2013-10-16 06:21:00,47.4,33.4,29.53,North,-999,-999.0,0.0,58,0.00,,,0.00,LWC V2.10 B1813,2013-10-16 12:21:00,
2013-10-16 06:26:00,47.4,33.4,29.53,North,-999,-999.0,0.0,58,0.00,,,0.00,LWC V2.10 B1813,2013-10-16 12:26:00,
2013-10-16 06:31:00,47.4,33.4,29.53,North,-999,-999.0,0.0,58,0.00,,,0.00,LWC V2.10 B1813,2013-10-16 12:31:00,
2013-10-16 06:36:00,47.6,33.6,29.53,North,-999,-999.0,0.0,58,0.00,,,0.00,LWC V2.10 B1813,2013-10-16 12:36:00,
2013-10-16 06:41:00,47.5,33.5,29.53,North,-999,-999.0,0.0,58,0.00,,,0.00,LWC V2.10 B1813,2013-10-16 12:41:00,
2013-10-16 06:46:00,47.6,33.6,29.53,North,-999,-999.0,0.0,58,0.00,,,0.00,LWC V2.10 B1813,2013-10-16 12:46:00,
2013-10-16 06:51:00,47.4,33.4,29.53,North,-999,-999.0,0.0,58,0.00,,,0.00,LWC V2.10 B1813,2013-10-16 12:51:00,
2013-10-16 06:56:00,47.6,33.6,29.53,North,-999,-999.0,0.0,58,0.00,,,0.00,LWC V2.10 B1813,2013-10-16 12:56:00,
2013-10-16 07:01:00,47.5,33.5,29.53,North,-999,-999.0,0.0,58,0.00,,,0.00,LWC V2.10 B1813,2013-10-16 13:01:00,
2013-10-16 07:06:00,47.5,33.5,29.53,North,-999,-999.0,0.0,58,0.00,,,0.00,LWC V2.10 B1813,2013-10-16 13:06:00,
2013-10-16 07:11:00,47.5,33.5,29.53,North,-999,-999.0,0.0,58,0.00,,,0.00,LWC V2.10 B1813,2013-10-16 13:11:00,
2013-10-16 07:16:00,47.4,33.8,29.53,North,-999,-999.0,0.0,59,0.00,,,0.00,LWC V2.10 B1813,2013-10-16 13:16:00,
2013-10-16 07:21:00,47.4,33.8,29.53,North,-999,-999.0,0.0,59,0.00,,,0.00,LWC V2.10 B1813,2013-10-16 13:21:00,
2013-10-16 07:26:00,47.5,33.9,29.53,North,-999,-999.0,0.0,59,0.00,,,0.00,LWC V2.10 B1813,2013-10-16 13:26:00,
2013-10-16 07:31:00,47.3,33.7,29.53,North,-999,-999.0,0.0,59,0.00,,,0.00,LWC V2.10 B1813,2013-10-16 13:31:00,
2013-10-16 07:36:00,47.1,33.5,29.53,North,-999,-999.0,0.0,59,0.00,,,0.00,LWC V2.10 B1813,2013-10-16 13:36:00,
2013-10-16 07:41:00,47.1,33.5,29.53,North,-999,-999.0,0.0,59,0.00,,,0.00,LWC V2.10 B1813,2013-10-16 13:41:00,
2013-10-16 07:46:00,47.1,33.9,29.53,North,-999,-999.0,0.0,60,0.00,,,0.00,LWC V2.10 B1813,2013-10-16 13:46:00,
2013-10-16 07:51:00,46.9,33.8,29.53,North,-999,-999.0,0.0,60,0.00,,,0.00,LWC V2.10 B1813,2013-10-16 13:51:00,
2013-10-16 07:56:00,46.9,33.8,29.53,North,-999,-999.0,0.0,60,0.00,,,0.00,LWC V2.10 B1813,2013-10-16 13:56:00,
2013-10-16 08:01:00,47.0,33.8,29.53,North,-999,-999.0,0.0,60,0.00,,,0.00,LWC V2.10 B1813,2013-10-16 14:01:00,
2013-10-16 08:06:00,47.2,34.0,29.53,North,-999,-999.0,0.0,60,0.00,,,0.00,LWC V2.10 B1813,2013-10-16 14:06:00,
2013-10-16 08:11:00,47.5,34.3,29.53,North,-999,-999.0,0.0,60,0.00,,,0.00,LWC V2.10 B1813,2013-10-16 14:11:00,
2013-10-16 08:16:00,48.1,34.5,29.53,North,-999,-999.0,0.0,59,0.00,,,0.00,LWC V2.10 B1813,2013-10-16 14:16:00,
2013-10-16 08:21:00,48.5,34.0,29.53,North,-999,-999.0,0.0,57,0.00,,,0.00,LWC V2.10 B1813,2013-10-16 14:21:00,
2013-10-16 08:26:00,48.9,34.3,29.53,North,-999,-999.0,0.0,57,0.00,,,0.00,LWC V2.10 B1813,2013-10-16 14:26:00,
2013-10-16 08:31:00,49.3,34.7,29.53,North,-999,-999.0,0.0,57,0.00,,,0.00,LWC V2.10 B1813,2013-10-16 14:31:00,
2013-10-16 08:36:00,49.6,34.6,29.53,North,-999,-999.0,0.0,56,0.00,,,0.00,LWC V2.10 B1813,2013-10-16 14:36:00,
2013-10-16 08:41:00,49.8,34.3,29.53,North,-999,-999.0,0.0,55,0.00,,,0.00,LWC V2.10 B1813,2013-10-16 14:41:00,
2013-10-16 08:46:00,50.0,34.5,29.53,North,-999,-999.0,0.0,55,0.00,,,0.00,LWC V2.10 B1813,2013-10-16 14:46:00,
2013-10-16 08:51:00,50.2,34.7,29.53,North,-999,-999.0,0.0,55,0.00,,,0.00,LWC V2.10 B1813,2013-10-16 14:51:00,
2013-10-16 08:56:00,50.4,34.8,29.53,North,-999,-999.0,0.0,55,0.00,,,0.00,LWC V2.10 B1813,2013-10-16 14:56:00,
2013-10-16 09:01:00,50.6,35.0,29.53,North,-999,-999.0,0.0,55,0.00,,,0.00,LWC V2.10 B1813,2013-10-16 15:01:00,
2013-10-16 09:06:00,50.7,34.7,29.53,North,-999,-999.0,0.0,54,0.00,,,0.00,LWC V2.10 B1813,2013-10-16 15:06:00,
2013-10-16 09:11:00,50.8,34.8,29.53,North,-999,-999.0,0.0,54,0.00,,,0.00,LWC V2.10 B1813,2013-10-16 15:11:00,
2013-10-16 09:16:00,51.0,34.9,29.53,North,-999,-999.0,0.0,54,0.00,,,0.00,LWC V2.10 B1813,2013-10-16 15:16:00,
2013-10-16 09:21:00,51.0,34.9,29.53,North,-999,-999.0,0.0,54,0.00,,,0.00,LWC V2.10 B1813,2013-10-16 15:21:00,
2013-10-16 09:26:00,51.2,35.1,29.53,North,-999,-999.0,0.0,54,0.00,,,0.00,LWC V2.10 B1813,2013-10-16 15:26:00,
2013-10-16 09:31:00,51.3,35.2,29.53,North,-999,-999.0,0.0,54,0.00,,,0.00,LWC V2.10 B1813,2013-10-16 15:31:00,
2013-10-16 09:36:00,51.4,35.3,29.53,North,-999,-999.0,0.0,54,0.00,,,0.00,LWC V2.10 B1813,2013-10-16 15:36:00,
2013-10-16 09:41:00,51.5,35.4,29.53,North,-999,-999.0,0.0,54,0.00,,,0.00,LWC V2.10 B1813,2013-10-16 15:41:00,
2013-10-16 09:46:00,51.8,35.7,29.53,North,-999,-999.0,0.0,54,0.00,,,0.00,LWC V2.10 B1813,2013-10-16 15:46:00,
2013-10-16 09:51:00,52.0,35.4,29.53,North,-999,-999.0,0.0,53,0.00,,,0.00,LWC V2.10 B1813,2013-10-16 15:51:00,
2013-10-16 09:56:00,52.1,35.5,29.53,North,-999,-999.0,0.0,53,0.00,,,0.00,LWC V2.10 B1813,2013-10-16 15:56:00,
2013-10-16 10:01:00,52.3,35.7,29.53,North,-999,-999.0,0.0,53,0.00,,,0.00,LWC V2.10 B1813,2013-10-16 16:01:00,
2013-10-16 10:06:00,52.4,35.8,29.53,North,-999,-999.0,0.0,53,0.00,,,0.00,LWC V2.10 B1813,2013-10-16 16:06:00,
2013-10-16 10:11:00,52.5,35.4,29.53,North,-999,-999.0,0.0,52,0.00,,,0.00,LWC V2.10 B1813,2013-10-16 16:11:00,
2013-10-16 10:16:00,52.6,35.5,29.53,North,-999,-999.0,0.0,52,0.00,,,0.00,LWC V2.10 B1813,2013-10-16 16:16:00,
2013-10-16 10:21:00,52.8,35.7,29.53,North,-999,-999.0,0.0,52,0.00,,,0.00,LWC V2.10 B1813,2013-10-16 16:21:00,
2013-10-16 10:26:00,52.8,35.7,29.53,North,-999,-999.0,0.0,52,0.00,,,0.00,LWC V2.10 B1813,2013-10-16 16:26:00,
2013-10-16 10:31:00,53.0,35.4,29.53,North,-999,-999.0,0.0,51,0.00,,,0.00,LWC V2.10 B1813,2013-10-16 16:31:00,
2013-10-16 10:36:00,53.0,35.4,29.53,North,-999,-999.0,0.0,51,0.00,,,0.00,LWC V2.10 B1813,2013-10-16 16:36:00,
2013-10-16 10:41:00,53.2,35.5,29.53,North,-999,-999.0,0.0,51,0.00,,,0.00,LWC V2.10 B1813,2013-10-16 16:41:00,
2013-10-16 10:46:00,53.3,35.6,29.53,North,-999,-999.0,0.0,51,0.00,,,0.00,LWC V2.10 B1813,2013-10-16 16:46:00,
2013-10-16 10:51:00,53.3,35.1,29.53,North,-999,-999.0,0.0,50,0.00,,,0.00,LWC V2.10 B1813,2013-10-16 16:51:00,
2013-10-16 10:56:00,53.5,35.8,29.53,North,-999,-999.0,0.0,51,0.00,,,0.00,LWC V2.10 B1813,2013-10-16 16:56:00,
2013-10-16 11:01:00,53.6,35.4,29.53,North,-999,-999.0,0.0,50,0.00,,,0.00,LWC V2.10 B1813,2013-10-16 17:01:00,
2013-10-16 11:06:00,53.8,36.1,29.53,North,-999,-999.0,0.0,51,0.00,,,0.00,LWC V2.10 B1813,2013-10-16 17:06:00,
2013-10-16 11:11:00,53.8,35.1,29.53,North,-999,-999.0,0.0,49,0.00,,,0.00,LWC V2.10 B1813,2013-10-16 17:11:00,
2013-10-16 11:16:00,53.9,35.7,29.53,North,-999,-999.0,0.0,50,0.00,,,0.00,LWC V2.10 B1813,2013-10-16 17:16:00,
2013-10-16 11:21:00,54.1,35.9,29.53,North,-999,-999.0,0.0,50,0.00,,,0.00,LWC V2.10 B1813,2013-10-16 17:21:00,
2013-10-16 11:26:00,54.2,36.0,29.53,North,-999,-999.0,0.0,50,0.00,,,0.00,LWC V2.10 B1813,2013-10-16 17:26:00,
2013-10-16 11:31:00,54.5,35.7,29.53,North,-999,-999.0,0.0,49,0.00,,,0.00,LWC V2.10 B1813,2013-10-16 17:31:00,
2013-10-16 11:36:00,54.6,35.8,29.53,North,-999,-999.0,0.0,49,0.00,,,0.00,LWC V2.10 B1813,2013-10-16 17:36:00,
2013-10-16 11:41:00,54.8,35.5,29.53,North,-999,-999.0,0.0,48,0.00,,,0.00,LWC V2.10 B1813,2013-10-16 17:41:00,
2013-10-16 11:46:00,54.8,35.0,29.53,North,-999,-999.0,0.0,47,0.00,,,0.00,LWC V2.10 B1813,2013-10-16 17:46:00,
2013-10-16 11:51:00,55.0,36.2,29.53,North,-999,-999.0,0.0,49,0.00,,,0.00,LWC V2.10 B1813,2013-10-16 17:51:00,
2013-10-16 11:56:00,55.1,35.8,29.53,North,-999,-999.0,0.0,48,0.00,,,0.00,LWC V2.10 B1813,2013-10-16 17:56:00,
2013-10-16 12:01:00,55.3,35.9,29.53,North,-999,-999.0,0.0,48,0.00,,,0.00,LWC V2.10 B1813,2013-10-16 18:01:00,
2013-10-16 12:06:00,55.5,36.1,29.53,North,-999,-999.0,0.0,48,0.00,,,0.00,LWC V2.10 B1813,2013-10-16 18:06:00,
2013-10-16 12:11:00,55.7,35.8,29.53,North,-999,-999.0,0.0,47,0.00,,,0.00,LWC V2.10 B1813,2013-10-16 18:11:00,
2013-10-16 12:16:00,55.7,35.2,29.53,North,-999,-999.0,0.0,46,0.00,,,0.00,LWC V2.10 B1813,2013-10-16 18:16:00,
2013-10-16 12:21:00,55.8,35.3,29.53,North,-999,-999.0,0.0,46,0.00,,,0.00,LWC V2.10 B1813,2013-10-16 18:21:00,
2013-10-16 12:26:00,56.0,35.0,29.53,North,-999,-999.0,0.0,45,0.00,,,0.00,LWC V2.10 B1813,2013-10-16 18:26:00,
2013-10-16 12:27:00,56.0,35.0,29.53,North,-999,-999.0,0.0,45,0.00,,,0.00,LWC V2.10 B1813,2013-10-16 18:27:00,
2013-10-16 12:32:00,56.5,34.9,29.53,North,-999,-999.0,0.0,44,0.00,,,0.00,LWC V2.10 B1813,2013-10-16 18:32:00,
2013-10-16 12:37:00,56.5,34.3,29.53,North,-999,-999.0,0.0,43,0.00,,,0.00,LWC V2.10 B1813,2013-10-16 18:37:00,
2013-10-16 12:42:00,56.9,35.2,29.53,North,-999,-999.0,0.0,44,0.00,,,0.00,LWC V2.10 B1813,2013-10-16 18:42:00,
2013-10-16 12:47:00,57.3,35.6,29.53,North,-999,-999.0,0.0,44,0.00,,,0.00,LWC V2.10 B1813,2013-10-16 18:47:00,
2013-10-16 12:52:00,57.3,34.4,29.53,North,-999,-999.0,0.0,42,0.00,,,0.00,LWC V2.10 B1813,2013-10-16 18:52:00,
2013-10-16 12:57:00,57.0,35.3,29.53,North,-999,-999.0,0.0,44,0.00,,,0.00,LWC V2.10 B1813,2013-10-16 18:57:00,
2013-10-16 13:02:00,56.9,35.2,29.53,North,-999,-999.0,0.0,44,0.00,,,0.00,LWC V2.10 B1813,2013-10-16 19:02:00,
2013-10-16 13:07:00,56.9,34.6,29.53,North,-999,-999.0,0.0,43,0.00,,,0.00,LWC V2.10 B1813,2013-10-16 19:07:00,
2013-10-16 13:12:00,57.3,35.6,29.53,North,-999,-999.0,0.0,44,0.00,,,0.00,LWC V2.10 B1813,2013-10-16 19:12:00,
2013-10-16 13:17:00,57.6,35.3,29.53,North,-999,-999.0,0.0,43,0.00,,,0.00,LWC V2.10 B1813,2013-10-16 19:17:00,
2013-10-16 13:22:00,57.5,35.8,29.53,North,-999,-999.0,0.0,44,0.00,,,0.00,LWC V2.10 B1813,2013-10-16 19:22:00,
2013-10-16 13:27:00,57.5,35.2,29.53,North,-999,-999.0,0.0,43,0.00,,,0.00,LWC V2.10 B1813,2013-10-16 19:27:00,
2013-10-16 13:32:00,57.1,34.2,29.53,North,-999,-999.0,0.0,42,0.00,,,0.00,LWC V2.10 B1813,2013-10-16 19:32:00,
2013-10-16 13:37:00,56.9,35.2,29.53,North,-999,-999.0,0.0,44,0.00,,,0.00,LWC V2.10 B1813,2013-10-16 19:37:00,
2013-10-16 13:42:00,56.7,35.0,29.53,North,-999,-999.0,0.0,44,0.00,,,0.00,LWC V2.10 B1813,2013-10-16 19:42:00,
2013-10-16 13:47:00,56.6,34.4,29.53,North,-999,-999.0,0.0,43,0.00,,,0.00,LWC V2.10 B1813,2013-10-16 19:47:00,
2013-10-16 13:52:00,56.6,34.4,29.53,North,-999,-999.0,0.0,43,0.00,,,0.00,LWC V2.10 B1813,2013-10-16 19:52:00,
2013-10-16 13:57:00,56.6,34.4,29.53,North,-999,-999.0,0.0,43,0.00,,,0.00,LWC V2.10 B1813,2013-10-16 19:57:00,
2013-10-16 14:02:00,57.0,34.7,29.53,North,-999,-999.0,0.0,43,0.00,,,0.00,LWC V2.10 B1813,2013-10-16 20:02:00,
2013-10-16 14:07:00,57.2,34.9,29.53,North,-999,-999.0,0.0,43,0.00,,,0.00,LWC V2.10 B1813,2013-10-16 20:07:00,
2013-10-16 14:12:00,57.3,34.4,29.53,North,-999,-999.0,0.0,42,0.00,,,0.00,LWC V2.10 B1813,2013-10-16 20:12:00,
2013-10-16 14:17:00,57.6,34.7,29.53,North,-999,-999.0,0.0,42,0.00,,,0.00,LWC V2.10 B1813,2013-10-16 20:17:00,
2013-10-16 14:22:00,57.7,34.2,29.53,North,-999,-999.0,0.0,41,0.00,,,0.00,LWC V2.10 B1813,2013-10-16 20:22:00,
2013-10-16 14:27:00,57.7,34.2,29.53,North,-999,-999.0,0.0,41,0.00,,,0.00,LWC V2.10 B1813,2013-10-16 20:27:00,
2013-10-16 14:32:00,57.7,34.2,29.53,North,-999,-999.0,0.0,41,0.00,,,0.00,LWC V2.10 B1813,2013-10-16 20:32:00,
2013-10-16 14:37:00,57.3,33.8,29.53,North,-999,-999.0,0.0,41,0.00,,,0.00,LWC V2.10 B1813,2013-10-16 20:37:00,
2013-10-16 14:42:00,57.3,34.4,29.53,North,-999,-999.0,0.0,42,0.00,,,0.00,LWC V2.10 B1813,2013-10-16 20:42:00,
2013-10-16 14:47:00,57.2,33.7,29.53,North,-999,-999.0,0.0,41,0.00,,,0.00,LWC V2.10 B1813,2013-10-16 20:47:00,
2013-10-16 14:52:00,57.2,34.3,29.53,North,-999,-999.0,0.0,42,0.00,,,0.00,LWC V2.10 B1813,2013-10-16 20:52:00,
2013-10-16 14:57:00,57.3,34.4,29.53,North,-999,-999.0,0.0,42,0.00,,,0.00,LWC V2.10 B1813,2013-10-16 20:57:00,
2013-10-16 15:02:00,57.3,33.2,29.53,North,-999,-999.0,0.0,40,0.00,,,0.00,LWC V2.10 B1813,2013-10-16 21:02:00,
2013-10-16 15:07:00,57.3,33.8,29.53,North,-999,-999.0,0.0,41,0.00,,,0.00,LWC V2.10 B1813,2013-10-16 21:07:00,
2013-10-16 15:12:00,57.5,34.0,29.53,North,-999,-999.0,0.0,41,0.00,,,0.00,LWC V2.10 B1813,2013-10-16 21:12:00,
2013-10-16 15:17:00,57.6,33.5,29.53,North,-999,-999.0,0.0,40,0.00,,,0.00,LWC V2.10 B1813,2013-10-16 21:17:00,
2013-10-16 15:22:00,57.6,33.5,29.53,North,-999,-999.0,0.0,40,0.00,,,0.00,LWC V2.10 B1813,2013-10-16 21:22:00,
2013-10-16 15:27:00,57.6,33.5,29.53,North,-999,-999.0,0.0,40,0.00,,,0.00,LWC V2.10 B1813,2013-10-16 21:27:00,
2013-10-16 15:32:00,57.7,32.9,29.53,North,-999,-999.0,0.0,39,0.00,,,0.00,LWC V2.10 B1813,2013-10-16 21:32:00,
2013-10-16 15:37:00,57.7,32.3,29.53,North,-999,-999.0,0.0,38,0.00,,,0.00,LWC V2.10 B1813,2013-10-16 21:37:00,
2013-10-16 15:42:00,57.7,32.9,29.53,North,-999,-999.0,0.0,39,0.00,,,0.00,LWC V2.10 B1813,2013-10-16 21:42:00,
2013-10-16 15:47:00,57.9,32.5,29.53,North,-999,-999.0,0.0,38,0.00,,,0.00,LWC V2.10 B1813,2013-10-16 21:47:00,
2013-10-16 15:52:00,57.9,32.5,29.53,North,-999,-999.0,0.0,38,0.00,,,0.00,LWC V2.10 B1813,2013-10-16 21:52:00,
2013-10-16 15:57:00,58.0,31.9,29.53,North,-999,-999.0,0.0,37,0.00,,,0.00,LWC V2.10 B1813,2013-10-16 21:57:00,
2013-10-16 16:02:00,58.0,31.2,29.53,North,-999,-999.0,0.0,36,0.00,,,0.00,LWC V2.10 B1813,2013-10-16 22:02:00,
2013-10-16 16:07:00,58.0,31.2,29.53,North,-999,-999.0,0.0,36,0.00,,,0.00,LWC V2.10 B1813,2013-10-16 22:07:00,
2013-10-16 16:12:00,57.9,30.4,29.53,North,-999,-999.0,0.0,35,0.00,,,0.00,LWC V2.10 B1813,2013-10-16 22:12:00,
2013-10-16 16:17:00,57.9,30.4,29.53,North,-999,-999.0,0.0,35,0.00,,,0.00,LWC V2.10 B1813,2013-10-16 22:17:00,
2013-10-16 16:22:00,57.9,31.1,29.53,North,-999,-999.0,0.0,36,0.00,,,0.00,LWC V2.10 B1813,2013-10-16 22:22:00,
2013-10-16 16:27:00,58.0,30.5,29.53,North,-999,-999.0,0.0,35,0.00,,,0.00,LWC V2.10 B1813,2013-10-16 22:27:00,
2013-10-16 16:32:00,57.9,29.0,29.53,North,-999,-999.0,0.0,33,0.00,,,0.00,LWC V2.10 B1813,2013-10-16 22:32:00,
2013-10-16 16:37:00,58.0,27.5,29.53,North,-999,-999.0,0.0,31,0.00,,,0.00,LWC V2.10 B1813,2013-10-16 22:37:00,
2013-10-16 16:42:00,58.0,26.7,29.53,North,-999,-999.0,0.0,30,0.00,,,0.00,LWC V2.10 B1813,2013-10-16 22:42:00,
2013-10-16 16:47:00,58.1,26.0,29.53,North,-999,-999.0,0.0,29,0.00,,,0.00,LWC V2.10 B1813,2013-10-16 22:47:00,
2013-10-16 16:52:00,58.0,25.9,29.53,North,-999,-999.0,0.0,29,0.00,,,0.00,LWC V2.10 B1813,2013-10-16 22:52:00,
2013-10-16 16:57:00,57.9,25.0,29.53,North,-999,-999.0,0.0,28,0.00,,,0.00,LWC V2.10 B1813,2013-10-16 22:57:00,
2013-10-16 17:02:00,57.9,24.1,29.53,North,-999,-999.0,0.0,27,0.00,,,0.00,LWC V2.10 B1813,2013-10-16 23:02:00,
2013-10-16 17:07:00,57.9,24.1,29.53,North,-999,-999.0,0.0,27,0.00,,,0.00,LWC V2.10 B1813,2013-10-16 23:07:00,
2013-10-16 17:12:00,57.8,24.0,29.53,North,-999,-999.0,0.0,27,0.00,,,0.00,LWC V2.10 B1813,2013-10-16 23:12:00,
2013-10-16 17:17:00,57.7,24.0,29.53,North,-999,-999.0,0.0,27,0.00,,,0.00,LWC V2.10 B1813,2013-10-16 23:17:00,
2013-10-16 17:22:00,57.6,23.9,29.53,North,-999,-999.0,0.0,27,0.00,,,0.00,LWC V2.10 B1813,2013-10-16 23:22:00,
2013-10-16 17:27:00,57.6,23.0,29.53,North,-999,-999.0,0.0,26,0.00,,,0.00,LWC V2.10 B1813,2013-10-16 23:27:00,
2013-10-16 17:32:00,57.5,22.9,29.53,North,-999,-999.0,0.0,26,0.00,,,0.00,LWC V2.10 B1813,2013-10-16 23:32:00,
2013-10-16 17:37:00,57.4,21.9,29.53,North,-999,-999.0,0.0,25,0.00,,,0.00,LWC V2.10 B1813,2013-10-16 23:37:00,
2013-10-16 17:42:00,57.3,21.8,29.53,North,-999,-999.0,0.0,25,0.00,,,0.00,LWC V2.10 B1813,2013-10-16 23:42:00,
2013-10-16 17:47:00,57.1,21.6,29.53,North,-999,-999.0,0.0,25,0.00,,,0.00,LWC V2.10 B1813,2013-10-16 23:47:00,
2013-10-16 17:52:00,57.0,21.5,29.53,North,-999,-999.0,0.0,25,0.00,,,0.00,LWC V2.10 B1813,2013-10-16 23:52:00,
2013-10-16 17:57:00,56.9,22.4,29.53,North,-999,-999.0,0.0,26,0.00,,,0.00,LWC V2.10 B1813,2013-10-16 23:57:00,
2013-10-16 18:02:00,56.8,22.3,29.53,North,-999,-999.0,0.0,26,0.00,,,0.00,LWC V2.10 B1813,2013-10-17 00:02:00,
2013-10-16 18:07:00,56.6,21.2,29.53,North,-999,-999.0,0.0,25,0.00,,,0.00,LWC V2.10 B1813,2013-10-17 00:07:00,
2013-10-16 18:12:00,56.5,22.0,29.53,North,-999,-999.0,0.0,26,0.00,,,0.00,LWC V2.10 B1813,2013-10-17 00:12:00,
2013-10-16 18:17:00,56.3,21.9,29.53,North,-999,-999.0,0.0,26,0.00,,,0.00,LWC V2.10 B1813,2013-10-17 00:17:00,
2013-10-16 18:22:00,56.2,21.8,29.53,North,-999,-999.0,0.0,26,0.00,,,0.00,LWC V2.10 B1813,2013-10-17 00:22:00,
2013-10-16 18:27:00,55.9,22.4,29.53,North,-999,-999.0,0.0,27,0.00,,,0.00,LWC V2.10 B1813,2013-10-17 00:27:00,
2013-10-16 18:32:00,55.8,22.3,29.53,North,-999,-999.0,0.0,27,0.00,,,0.00,LWC V2.10 B1813,2013-10-17 00:32:00,
2013-10-16 18:37:00,55.6,22.2,29.53,North,-999,-999.0,0.0,27,0.00,,,0.00,LWC V2.10 B1813,2013-10-17 00:37:00,
2013-10-16 18:42:00,55.5,22.1,29.53,North,-999,-999.0,0.0,27,0.00,,,0.00,LWC V2.10 B1813,2013-10-17 00:42:00,
2013-10-16 18:47:00,55.4,22.0,29.53,North,-999,-999.0,0.0,27,0.00,,,0.00,LWC V2.10 B1813,2013-10-17 00:47:00,
2013-10-16 18:52:00,55.2,21.8,29.53,North,-999,-999.0,0.0,27,0.00,,,0.00,LWC V2.10 B1813,2013-10-17 00:52:00,
2013-10-16 18:57:00,55.0,21.6,29.53,North,-999,-999.0,0.0,27,0.00,,,0.00,LWC V2.10 B1813,2013-10-17 00:57:00,
2013-10-16 19:02:00,55.0,21.6,29.53,North,-999,-999.0,0.0,27,0.00,,,0.00,LWC V2.10 B1813,2013-10-17 01:02:00,
2013-10-16 19:07:00,54.8,21.5,29.53,North,-999,-999.0,0.0,27,0.00,,,0.00,LWC V2.10 B1813,2013-10-17 01:07:00,
2013-10-16 19:12:00,54.8,21.5,29.53,North,-999,-999.0,0.0,27,0.00,,,0.00,LWC V2.10 B1813,2013-10-17 01:12:00,
2013-10-16 19:17:00,54.6,21.3,29.53,North,-999,-999.0,0.0,27,0.00,,,0.00,LWC V2.10 B1813,2013-10-17 01:17:00,
2013-10-16 19:22:00,54.5,21.2,29.53,North,-999,-999.0,0.0,27,0.00,,,0.00,LWC V2.10 B1813,2013-10-17 01:22:00,
2013-10-16 19:27:00,54.4,21.1,29.53,North,-999,-999.0,0.0,27,0.00,,,0.00,LWC V2.10 B1813,2013-10-17 01:27:00,
2013-10-16 19:32:00,54.3,21.0,29.53,North,-999,-999.0,0.0,27,0.00,,,0.00,LWC V2.10 B1813,2013-10-17 01:32:00,
2013-10-16 19:37:00,54.2,21.0,29.53,North,-999,-999.0,0.0,27,0.00,,,0.00,LWC V2.10 B1813,2013-10-17 01:37:00,
2013-10-16 19:42:00,54.1,20.9,29.53,North,-999,-999.0,0.0,27,0.00,,,0.00,LWC V2.10 B1813,2013-10-17 01:42:00,
2013-10-16 19:47:00,54.1,20.9,29.53,North,-999,-999.0,0.0,27,0.00,,,0.00,LWC V2.10 B1813,2013-10-17 01:47:00,
2013-10-16 19:52:00,54.0,20.8,29.53,North,-999,-999.0,0.0,27,0.00,,,0.00,LWC V2.10 B1813,2013-10-17 01:52:00,
2013-10-16 19:57:00,53.9,20.7,29.53,North,-999,-999.0,0.0,27,0.00,,,0.00,LWC V2.10 B1813,2013-10-17 01:57:00,
2013-10-16 20:02:00,53.8,20.6,29.53,North,-999,-999.0,0.0,27,0.00,,,0.00,LWC V2.10 B1813,2013-10-17 02:02:00,
2013-10-16 20:07:00,53.7,20.5,29.53,North,-999,-999.0,0.0,27,0.00,,,0.00,LWC V2.10 B1813,2013-10-17 02:07:00,
2013-10-16 20:12:00,53.6,20.4,29.53,North,-999,-999.0,0.0,27,0.00,,,0.00,LWC V2.10 B1813,2013-10-17 02:12:00,
2013-10-16 20:17:00,53.4,20.3,29.53,North,-999,-999.0,0.0,27,0.00,,,0.00,LWC V2.10 B1813,2013-10-17 02:17:00,
2013-10-16 20:22:00,53.3,20.2,29.53,North,-999,-999.0,0.0,27,0.00,,,0.00,LWC V2.10 B1813,2013-10-17 02:22:00,
2013-10-16 20:27:00,53.2,19.2,29.53,North,-999,-999.0,0.0,26,0.00,,,0.00,LWC V2.10 B1813,2013-10-17 02:27:00,
2013-10-16 20:32:00,53.2,18.3,29.53,North,-999,-999.0,0.0,25,0.00,,,0.00,LWC V2.10 B1813,2013-10-17 02:32:00,
2013-10-16 20:37:00,53.1,19.1,29.53,North,-999,-999.0,0.0,26,0.00,,,0.00,LWC V2.10 B1813,2013-10-17 02:37:00,
2013-10-16 20:42:00,53.0,19.0,29.53,North,-999,-999.0,0.0,26,0.00,,,0.00,LWC V2.10 B1813,2013-10-17 02:42:00,
2013-10-16 20:47:00,52.9,18.1,29.53,North,-999,-999.0,0.0,25,0.00,,,0.00,LWC V2.10 B1813,2013-10-17 02:47:00,
2013-10-16 20:52:00,52.8,18.0,29.53,North,-999,-999.0,0.0,25,0.00,,,0.00,LWC V2.10 B1813,2013-10-17 02:52:00,
2013-10-16 20:57:00,52.7,17.9,29.53,North,-999,-999.0,0.0,25,0.00,,,0.00,LWC V2.10 B1813,2013-10-17 02:57:00,
2013-10-16 21:02:00,52.6,16.9,29.53,North,-999,-999.0,0.0,24,0.00,,,0.00,LWC V2.10 B1813,2013-10-17 03:02:00,
2013-10-16 21:07:00,52.4,16.7,29.53,North,-999,-999.0,0.0,24,0.00,,,0.00,LWC V2.10 B1813,2013-10-17 03:07:00,
2013-10-16 21:12:00,52.4,16.7,29.53,North,-999,-999.0,0.0,24,0.00,,,0.00,LWC V2.10 B1813,2013-10-17 03:12:00,
2013-10-16 21:17:00,52.3,17.5,29.53,North,-999,-999.0,0.0,25,0.00,,,0.00,LWC V2.10 B1813,2013-10-17 03:17:00,
2013-10-16 21:22:00,52.2,18.4,29.53,North,-999,-999.0,0.0,26,0.00,,,0.00,LWC V2.10 B1813,2013-10-17 03:22:00,
2013-10-16 21:27:00,52.1,18.3,29.53,North,-999,-999.0,0.0,26,0.00,,,0.00,LWC V2.10 B1813,2013-10-17 03:27:00,
2013-10-16 21:32:00,52.0,18.2,29.53,North,-999,-999.0,0.0,26,0.00,,,0.00,LWC V2.10 B1813,2013-10-17 03:32:00,
2013-10-16 21:37:00,51.9,19.0,29.53,North,-999,-999.0,0.0,27,0.00,,,0.00,LWC V2.10 B1813,2013-10-17 03:37:00,
2013-10-16 21:42:00,51.8,18.9,29.53,North,-999,-999.0,0.0,27,0.00,,,0.00,LWC V2.10 B1813,2013-10-17 03:42:00,
2013-10-16 21:47:00,51.6,18.7,29.53,North,-999,-999.0,0.0,27,0.00,,,0.00,LWC V2.10 B1813,2013-10-17 03:47:00,
2013-10-16 21:52:00,51.6,18.7,29.53,North,-999,-999.0,0.0,27,0.00,,,0.00,LWC V2.10 B1813,2013-10-17 03:52:00,
2013-10-16 21:57:00,51.5,18.6,29.53,North,-999,-999.0,0.0,27,0.00,,,0.00,LWC V2.10 B1813,2013-10-17 03:57:00,
2013-10-16 22:01:00,51.4,18.6,29.53,North,-999,-999.0,0.0,27,0.00,,,0.00,LWC V2.10 B1813,2013-10-17 04:01:00,
2013-10-16 22:06:00,51.3,18.5,29.53,North,-999,-999.0,0.0,27,0.00,,,0.00,LWC V2.10 B1813,2013-10-17 04:06:00,
2013-10-16 22:11:00,51.2,18.4,29.53,North,-999,-999.0,0.0,27,0.00,,,0.00,LWC V2.10 B1813,2013-10-17 04:11:00,
2013-10-16 22:16:00,51.1,18.3,29.53,North,-999,-999.0,0.0,27,0.00,,,0.00,LWC V2.10 B1813,2013-10-17 04:16:00,
2013-10-16 22:21:00,51.0,18.2,29.53,North,-999,-999.0,0.0,27,0.00,,,0.00,LWC V2.10 B1813,2013-10-17 04:21:00,
2013-10-16 22:26:00,50.9,18.1,29.53,North,-999,-999.0,0.0,27,0.00,,,0.00,LWC V2.10 B1813,2013-10-17 04:26:00,
2013-10-16 22:31:00,50.8,18.0,29.53,North,-999,-999.0,0.0,27,0.00,,,0.00,LWC V2.10 B1813,2013-10-17 04:31:00,
2013-10-16 22:36:00,50.8,18.0,29.53,North,-999,-999.0,0.0,27,0.00,,,0.00,LWC V2.10 B1813,2013-10-17 04:36:00,
2013-10-16 22:41:00,50.7,18.0,29.53,North,-999,-999.0,0.0,27,0.00,,,0.00,LWC V2.10 B1813,2013-10-17 04:41:00,
2013-10-16 22:46:00,50.6,18.7,29.53,North,-999,-999.0,0.0,28,0.00,,,0.00,LWC V2.10 B1813,2013-10-17 04:46:00,
2013-10-16 22:51:00,50.5,17.8,29.53,North,-999,-999.0,0.0,27,0.00,,,0.00,LWC V2.10 B1813,2013-10-17 04:51:00,
2013-10-16 22:56:00,50.4,18.5,29.53,North,-999,-999.0,0.0,28,0.00,,,0.00,LWC V2.10 B1813,2013-10-17 04:56:00,
2013-10-16 23:01:00,50.2,18.4,29.53,North,-999,-999.0,0.0,28,0.00,,,0.00,LWC V2.10 B1813,2013-10-17 05:01:00,
2013-10-16 23:06:00,50.1,18.3,29.53,North,-999,-999.0,0.0,28,0.00,,,0.00,LWC V2.10 B1813,2013-10-17 05:06:00,
2013-10-16 23:11:00,50.1,18.3,29.53,North,-999,-999.0,0.0,28,0.00,,,0.00,LWC V2.10 B1813,2013-10-17 05:11:00,
2013-10-16 23:16:00,50.0,18.2,29.53,North,-999,-999.0,0.0,28,0.00,,,0.00,LWC V2.10 B1813,2013-10-17 05:16:00,
2013-10-16 23:21:00,49.9,18.9,29.53,North,-999,-999.0,0.0,29,0.00,,,0.00,LWC V2.10 B1813,2013-10-17 05:21:00,
2013-10-16 23:26:00,49.8,19.6,29.53,North,-999,-999.0,0.0,30,0.00,,,0.00,LWC V2.10 B1813,2013-10-17 05:26:00,
2013-10-16 23:31:00,49.7,18.8,29.53,North,-999,-999.0,0.0,29,0.00,,,0.00,LWC V2.10 B1813,2013-10-17 05:31:00,
2013-10-16 23:36:00,49.6,19.5,29.53,North,-999,-999.0,0.0,30,0.00,,,0.00,LWC V2.10 B1813,2013-10-17 05:36:00,
2013-10-16 23:41:00,49.5,19.4,29.53,North,-999,-999.0,0.0,30,0.00,,,0.00,LWC V2.10 B1813,2013-10-17 05:41:00,
2013-10-16 23:46:00,49.4,20.0,29.53,North,-999,-999.0,0.0,31,0.00,,,0.00,LWC V2.10 B1813,2013-10-17 05:46:00,
2013-10-16 23:51:00,49.3,20.0,29.53,North,-999,-999.0,0.0,31,0.00,,,0.00,LWC V2.10 B1813,2013-10-17 05:51:00,
2013-10-16 23:56:00,49.2,20.6,29.53,North,-999,-999.0,0.0,32,0.00,,,0.00,LWC V2.10 B1813,2013-10-17 05:56:00,